,,,PA_Meas_PMT16A,,PR_Meas_QMR101_102,,RH_Meas_QMH101,,SR_Meas_QMS101,,TA_Meas_QMH101,,GenWind,,GenWind,
date,time,status,PA,status,PR,status,RH,status,SR,status,TA,status,DirAvg,status,SpdAvg,
2009-02-20, 00:00:04,VALID,999.758,VALID,0,VALID,94.0503,VALID,0,VALID,23.9939,VALID,90,VALID,0.683594,
2009-02-20, 00:01:04,VALID,999.795,VALID,0,VALID,94.0045,VALID,0,VALID,23.9957,VALID,86,VALID,0.825391,
2009-02-20, 00:02:04,VALID,999.801,VALID,0,VALID,94.0503,VALID,0,VALID,23.9762,VALID,86,VALID,0.967969,
2009-02-20, 00:03:04,VALID,999.823,VALID,0,VALID,94.0198,VALID,0,VALID,23.9372,VALID,86,VALID,0.896484,
2009-02-20, 00:04:04,VALID,999.815,VALID,0,VALID,94.0122,VALID,0,VALID,23.9177,VALID,86,VALID,0.769141,
2009-02-20, 00:05:04,VALID,999.825,VALID,0,VALID,94.0351,VALID,0,VALID,23.8768,VALID,86,VALID,0.662109,
2009-02-20, 00:06:04,VALID,999.797,VALID,0,VALID,94.1037,VALID,0,VALID,23.8768,VALID,86,VALID,0.180859,
2009-02-20, 00:07:04,VALID,999.779,VALID,0,VALID,94.0503,VALID,0,VALID,23.8573,VALID,86,VALID,0.151953,
2009-02-20, 00:08:04,VALID,999.758,VALID,0,VALID,94.058,VALID,0,VALID,23.8786,VALID,86,VALID,0.246484,
2009-02-20, 00:09:04,VALID,999.769,VALID,0,VALID,94.1266,VALID,0,VALID,23.8591,VALID,86,VALID,0.320703,
2009-02-20, 00:10:04,VALID,999.716,VALID,0,VALID,94.1343,VALID,0,VALID,23.8396,VALID,86,VALID,0.136719,
2009-02-20, 00:11:04,VALID,999.722,VALID,0,VALID,94.1114,VALID,0,VALID,23.8201,VALID,86,VALID,0,
2009-02-20, 00:12:04,VALID,999.716,VALID,0,VALID,94.18,VALID,0,VALID,23.7988,VALID,86,VALID,0,
2009-02-20, 00:13:04,VALID,999.711,VALID,0,VALID,94.2182,VALID,0,VALID,23.8006,VALID,86,VALID,0.0917969,
2009-02-20, 00:14:04,VALID,999.683,VALID,0,VALID,94.2945,VALID,0,VALID,23.8006,VALID,86,VALID,0.260156,
2009-02-20, 00:15:04,VALID,999.637,VALID,0,VALID,94.386,VALID,0,VALID,23.7988,VALID,86,VALID,0.25,
2009-02-20, 00:16:04,VALID,999.612,VALID,0,VALID,94.4089,VALID,0,VALID,23.8201,VALID,124,VALID,0.381641,
2009-02-20, 00:17:04,VALID,999.578,VALID,0,VALID,94.4776,VALID,0,VALID,23.8396,VALID,191,VALID,0.592578,
2009-02-20, 00:18:04,VALID,999.577,VALID,0,VALID,94.4165,VALID,0,VALID,23.8591,VALID,191,VALID,0.547656,
2009-02-20, 00:19:04,VALID,999.58,VALID,0,VALID,94.4165,VALID,0,VALID,23.8786,VALID,191,VALID,0.412891,
2009-02-20, 00:20:04,VALID,999.574,VALID,0,VALID,94.3784,VALID,0,VALID,23.8786,VALID,191,VALID,0.247656,
2009-02-20, 00:21:04,VALID,999.546,VALID,0,VALID,94.264,VALID,0,VALID,23.8591,VALID,191,VALID,0,
2009-02-20, 00:22:04,VALID,999.561,VALID,0,VALID,94.2105,VALID,0,VALID,23.8201,VALID,191,VALID,0,
2009-02-20, 00:23:04,VALID,999.598,VALID,0,VALID,94.2792,VALID,0,VALID,23.8201,VALID,191,VALID,0,
2009-02-20, 00:24:04,VALID,999.56,VALID,0,VALID,94.0503,VALID,0,VALID,23.7811,VALID,191,VALID,0.065625,
2009-02-20, 00:25:04,VALID,999.583,VALID,0,VALID,94.0732,VALID,0,VALID,23.742,VALID,191,VALID,0.0304688,
2009-02-20, 00:26:04,VALID,999.579,VALID,0,VALID,94.1419,VALID,0,VALID,23.742,VALID,191,VALID,0.233984,
2009-02-20, 00:27:04,VALID,999.556,VALID,0,VALID,94.6226,VALID,0,VALID,23.8201,VALID,190,VALID,1.14688,
2009-02-20, 00:28:04,VALID,999.55,VALID,0,VALID,94.7828,VALID,0,VALID,23.8982,VALID,199,VALID,1.27969,
2009-02-20, 00:29:04,VALID,999.552,VALID,0,VALID,94.6378,VALID,0,VALID,23.9567,VALID,188,VALID,1.1168,
2009-02-20, 00:30:04,VALID,999.6,VALID,0,VALID,94.4394,VALID,0,VALID,23.9957,VALID,170,VALID,0.658984,
2009-02-20, 00:31:04,VALID,999.589,VALID,0,VALID,94.325,VALID,0,VALID,24.0348,VALID,171,VALID,0.555078,
2009-02-20, 00:32:04,VALID,999.561,VALID,0,VALID,94.2563,VALID,0,VALID,24.0153,VALID,167,VALID,0.816406,
2009-02-20, 00:33:04,VALID,999.586,VALID,0,VALID,94.0885,VALID,0,VALID,24.0348,VALID,163,VALID,1.00859,
2009-02-20, 00:34:04,VALID,999.563,VALID,0,VALID,93.9511,VALID,0,VALID,24.0348,VALID,154,VALID,1.10898,
2009-02-20, 00:35:04,VALID,999.52,VALID,0,VALID,93.8825,VALID,0,VALID,24.0153,VALID,162,VALID,0.925781,
2009-02-20, 00:36:04,VALID,999.499,VALID,0,VALID,93.8062,VALID,0,VALID,23.9957,VALID,173,VALID,1.02773,
2009-02-20, 00:37:04,VALID,999.452,VALID,0,VALID,93.7833,VALID,0,VALID,23.9762,VALID,171,VALID,1.16484,
2009-02-20, 00:38:04,VALID,999.437,VALID,0,VALID,93.852,VALID,0,VALID,23.9549,VALID,171,VALID,1.22227,
2009-02-20, 00:39:04,VALID,999.426,VALID,0,VALID,93.8977,VALID,0,VALID,23.9567,VALID,179,VALID,0.845312,
2009-02-20, 00:40:04,VALID,999.44,VALID,0,VALID,93.8901,VALID,0,VALID,23.9372,VALID,189,VALID,0.899609,
2009-02-20, 00:41:04,VALID,999.375,VALID,0,VALID,93.9588,VALID,0,VALID,23.9567,VALID,199,VALID,0.832422,
2009-02-20, 00:42:04,VALID,999.358,VALID,0,VALID,93.974,VALID,0,VALID,23.9762,VALID,216,VALID,1.01211,
2009-02-20, 00:43:04,VALID,999.333,VALID,0,VALID,93.8977,VALID,0,VALID,23.9744,VALID,230,VALID,0.916016,
2009-02-20, 00:44:04,VALID,999.364,VALID,0,VALID,93.7985,VALID,0,VALID,23.9957,VALID,210,VALID,0.670313,
2009-02-20, 00:45:04,VALID,999.374,VALID,0,VALID,93.7909,VALID,0,VALID,23.9957,VALID,209,VALID,0.672656,
2009-02-20, 00:46:04,VALID,999.378,VALID,0,VALID,93.7223,VALID,0,VALID,23.9957,VALID,195,VALID,0.984766,
2009-02-20, 00:47:04,VALID,999.385,VALID,0,VALID,93.6688,VALID,0,VALID,24.0153,VALID,187,VALID,0.876953,
2009-02-20, 00:48:04,VALID,999.4,VALID,0,VALID,93.646,VALID,0,VALID,24.0153,VALID,200,VALID,0.417578,
2009-02-20, 00:49:04,VALID,999.385,VALID,0,VALID,93.4857,VALID,0,VALID,23.9957,VALID,244,VALID,0.460547,
2009-02-20, 00:50:04,VALID,999.352,VALID,0,VALID,93.3484,VALID,0,VALID,23.9549,VALID,289,VALID,0.571484,
2009-02-20, 00:51:04,VALID,999.328,VALID,0,VALID,93.4628,VALID,0,VALID,23.9372,VALID,289,VALID,0.529688,
2009-02-20, 00:52:04,VALID,999.339,VALID,0,VALID,93.6078,VALID,0,VALID,23.9177,VALID,287,VALID,0.306641,
2009-02-20, 00:53:04,VALID,999.365,VALID,0,VALID,93.6078,VALID,0,VALID,23.8786,VALID,287,VALID,0.00195313,
2009-02-20, 00:54:04,VALID,999.333,VALID,0,VALID,93.6765,VALID,0,VALID,23.8786,VALID,287,VALID,0.0382813,
2009-02-20, 00:55:04,VALID,999.32,VALID,0,VALID,93.7528,VALID,0,VALID,23.8591,VALID,287,VALID,0.139453,
2009-02-20, 00:56:04,VALID,999.344,VALID,0,VALID,93.8672,VALID,0,VALID,23.8591,VALID,231,VALID,0.388281,
2009-02-20, 00:57:04,VALID,999.349,VALID,0,VALID,93.9359,VALID,0,VALID,23.8786,VALID,191,VALID,0.444531,
2009-02-20, 00:58:04,VALID,999.33,VALID,0,VALID,93.9359,VALID,0,VALID,23.8591,VALID,189,VALID,0.347266,
2009-02-20, 00:59:04,VALID,999.3,VALID,0,VALID,93.9283,VALID,0,VALID,23.8786,VALID,174,VALID,0.667578,
2009-02-20, 01:00:04,VALID,999.293,VALID,0,VALID,93.9511,VALID,0,VALID,23.8591,VALID,184,VALID,1.08789,
2009-02-20, 01:01:04,VALID,999.265,VALID,0,VALID,93.9054,VALID,0,VALID,23.8982,VALID,175,VALID,1.45547,
2009-02-20, 01:02:04,VALID,999.265,VALID,0,VALID,93.8291,VALID,0,VALID,23.8982,VALID,188,VALID,1.35508,
2009-02-20, 01:03:04,VALID,999.272,VALID,0,VALID,93.7451,VALID,0,VALID,23.8963,VALID,199,VALID,0.896484,
2009-02-20, 01:04:04,VALID,999.272,VALID,0,VALID,93.6688,VALID,0,VALID,23.9372,VALID,224,VALID,1.26367,
2009-02-20, 01:05:04,VALID,999.254,VALID,0,VALID,93.5086,VALID,0,VALID,23.9372,VALID,235,VALID,0.708594,
2009-02-20, 01:06:04,VALID,999.217,VALID,0,VALID,93.4552,VALID,0,VALID,23.9372,VALID,234,VALID,0.508203,
2009-02-20, 01:07:04,VALID,999.192,VALID,0,VALID,93.44,VALID,0,VALID,23.9372,VALID,235,VALID,0.242969,
2009-02-20, 01:08:04,VALID,999.183,VALID,0,VALID,93.4018,VALID,0,VALID,23.8982,VALID,235,VALID,0.280469,
2009-02-20, 01:09:04,VALID,999.123,VALID,0,VALID,93.3484,VALID,0,VALID,23.8786,VALID,235,VALID,0.0824219,
2009-02-20, 01:10:04,VALID,999.099,VALID,0,VALID,93.3789,VALID,0,VALID,23.8396,VALID,235,VALID,0.096875,
2009-02-20, 01:11:04,VALID,999.083,VALID,0,VALID,93.3331,VALID,0,VALID,23.8201,VALID,238,VALID,0.454297,
2009-02-20, 01:12:04,VALID,999.087,VALID,0,VALID,93.4323,VALID,0,VALID,23.7811,VALID,320,VALID,0.4375,
2009-02-20, 01:13:04,VALID,999.05,VALID,0,VALID,93.5086,VALID,0,VALID,23.7616,VALID,320,VALID,0.444531,
2009-02-20, 01:14:04,VALID,999.042,VALID,0,VALID,93.6002,VALID,0,VALID,23.7012,VALID,320,VALID,0.424609,
2009-02-20, 01:15:04,VALID,999.069,VALID,0,VALID,93.6078,VALID,0,VALID,23.6835,VALID,320,VALID,0.628906,
2009-02-20, 01:16:04,VALID,999.048,VALID,0,VALID,93.6765,VALID,0,VALID,23.6445,VALID,330,VALID,0.718359,
2009-02-20, 01:17:04,VALID,999.037,VALID,0,VALID,93.8748,VALID,0,VALID,23.625,VALID,330,VALID,0.664453,
2009-02-20, 01:18:04,VALID,999.033,VALID,0,VALID,94.0503,VALID,0,VALID,23.6036,VALID,330,VALID,0.572266,
2009-02-20, 01:19:04,VALID,999.046,VALID,0,VALID,94.119,VALID,0,VALID,23.6054,VALID,330,VALID,0.493359,
2009-02-20, 01:20:04,VALID,999.02,VALID,0,VALID,94.1877,VALID,0,VALID,23.5859,VALID,330,VALID,0.330078,
2009-02-20, 01:21:04,VALID,999.021,VALID,0,VALID,94.1953,VALID,0.112286,VALID,23.5646,VALID,330,VALID,0.0121094,
2009-02-20, 01:22:04,VALID,999.037,VALID,0,VALID,94.18,VALID,0.112286,VALID,23.5451,VALID,330,VALID,0.0265625,
2009-02-20, 01:23:04,VALID,999.016,VALID,0,VALID,93.9511,VALID,0,VALID,23.5061,VALID,330,VALID,0.375,
2009-02-20, 01:24:04,VALID,999.002,VALID,0,VALID,94.2487,VALID,0,VALID,23.4884,VALID,330,VALID,0.561328,
2009-02-20, 01:25:04,VALID,998.977,VALID,0,VALID,94.5234,VALID,0,VALID,23.4866,VALID,330,VALID,0.605859,
2009-02-20, 01:26:04,VALID,998.968,VALID,0,VALID,94.676,VALID,0,VALID,23.5274,VALID,330,VALID,0.628906,
2009-02-20, 01:27:04,VALID,998.949,VALID,0,VALID,94.7523,VALID,0,VALID,23.5256,VALID,331,VALID,0.713281,
2009-02-20, 01:28:04,VALID,998.934,VALID,0,VALID,94.6531,VALID,0,VALID,23.5451,VALID,14,VALID,0.951563,
2009-02-20, 01:29:04,VALID,998.957,VALID,0,VALID,94.4547,VALID,0.112286,VALID,23.4866,VALID,17,VALID,1.13008,
2009-02-20, 01:30:04,VALID,998.932,VALID,0,VALID,94.4089,VALID,0,VALID,23.4475,VALID,17,VALID,1.12695,
2009-02-20, 01:31:04,VALID,998.939,VALID,0,VALID,94.3937,VALID,0,VALID,23.4298,VALID,17,VALID,0.839844,
2009-02-20, 01:32:04,VALID,998.944,VALID,0,VALID,94.4852,VALID,0,VALID,23.4085,VALID,20,VALID,0.825391,
2009-02-20, 01:33:04,VALID,998.95,VALID,0,VALID,94.531,VALID,0,VALID,23.389,VALID,31,VALID,0.7125,
2009-02-20, 01:34:04,VALID,998.967,VALID,0,VALID,94.5615,VALID,0.112286,VALID,23.3695,VALID,45,VALID,0.900781,
2009-02-20, 01:35:04,VALID,998.947,VALID,0,VALID,94.5539,VALID,0,VALID,23.3908,VALID,49,VALID,0.809766,
2009-02-20, 01:36:04,VALID,998.99,VALID,0,VALID,94.592,VALID,0,VALID,23.35,VALID,50,VALID,0.649219,
2009-02-20, 01:37:04,VALID,998.931,VALID,0,VALID,94.6378,VALID,0,VALID,23.35,VALID,52,VALID,0.55,
2009-02-20, 01:38:04,VALID,998.911,VALID,0,VALID,94.737,VALID,0,VALID,23.3713,VALID,61,VALID,0.462109,
2009-02-20, 01:39:04,VALID,998.911,VALID,0,VALID,94.7599,VALID,0,VALID,23.389,VALID,61,VALID,0.376172,
2009-02-20, 01:40:04,VALID,998.885,VALID,0,VALID,94.8057,VALID,0,VALID,23.389,VALID,62,VALID,0.404297,
2009-02-20, 01:41:04,VALID,998.879,VALID,0,VALID,94.8362,VALID,0,VALID,23.4085,VALID,63,VALID,0.444141,
2009-02-20, 01:42:04,VALID,998.838,VALID,0,VALID,94.8514,VALID,0,VALID,23.4298,VALID,73,VALID,0.502734,
2009-02-20, 01:43:04,VALID,998.825,VALID,0,VALID,94.882,VALID,0,VALID,23.4493,VALID,96,VALID,0.696094,
2009-02-20, 01:44:04,VALID,998.815,VALID,0,VALID,94.8591,VALID,0,VALID,23.4688,VALID,104,VALID,0.747656,
2009-02-20, 01:45:04,VALID,998.811,VALID,0,VALID,94.8057,VALID,0,VALID,23.4493,VALID,104,VALID,0.594141,
2009-02-20, 01:46:04,VALID,998.828,VALID,0,VALID,94.7828,VALID,0.112286,VALID,23.428,VALID,104,VALID,0.585156,
2009-02-20, 01:47:04,VALID,998.827,VALID,0,VALID,94.8133,VALID,0,VALID,23.428,VALID,104,VALID,0.515625,
2009-02-20, 01:48:04,VALID,998.848,VALID,0,VALID,94.8057,VALID,0,VALID,23.4085,VALID,104,VALID,0.571484,
2009-02-20, 01:49:04,VALID,998.839,VALID,0,VALID,94.7828,VALID,0.112286,VALID,23.4085,VALID,104,VALID,0.671875,
2009-02-20, 01:50:04,VALID,998.835,VALID,0,VALID,94.7751,VALID,0.112286,VALID,23.4085,VALID,104,VALID,0.516016,
2009-02-20, 01:51:04,VALID,998.812,VALID,0,VALID,94.7599,VALID,0.112286,VALID,23.389,VALID,104,VALID,0.513672,
2009-02-20, 01:52:04,VALID,998.828,VALID,0,VALID,94.7599,VALID,0,VALID,23.4103,VALID,104,VALID,0.314453,
2009-02-20, 01:53:04,VALID,998.825,VALID,0,VALID,94.7217,VALID,0.112286,VALID,23.4103,VALID,104,VALID,0.0117188,
2009-02-20, 01:54:04,VALID,998.79,VALID,0,VALID,94.7294,VALID,0,VALID,23.3908,VALID,104,VALID,0.140234,
2009-02-20, 01:55:04,VALID,998.795,VALID,0,VALID,94.7141,VALID,0,VALID,23.3908,VALID,104,VALID,0.204297,
2009-02-20, 01:56:04,VALID,998.774,VALID,0,VALID,94.6988,VALID,0,VALID,23.35,VALID,104,VALID,0.0574219,
2009-02-20, 01:57:04,VALID,998.769,VALID,0,VALID,94.7217,VALID,0,VALID,23.35,VALID,104,VALID,0.265625,
2009-02-20, 01:58:04,VALID,998.8,VALID,0,VALID,94.7065,VALID,0,VALID,23.3305,VALID,104,VALID,0.191406,
2009-02-20, 01:59:04,VALID,998.796,VALID,0,VALID,94.7446,VALID,0,VALID,23.3518,VALID,104,VALID,0.320703,
2009-02-20, 02:00:04,VALID,998.823,VALID,0,VALID,94.7523,VALID,0,VALID,23.3305,VALID,112,VALID,0.392578,
2009-02-20, 02:01:04,VALID,998.831,VALID,0,VALID,94.7828,VALID,0.112286,VALID,23.3305,VALID,112,VALID,0.579687,
2009-02-20, 02:02:04,VALID,998.835,VALID,0,VALID,94.7675,VALID,0,VALID,23.3305,VALID,112,VALID,0.256641,
2009-02-20, 02:03:04,VALID,998.813,VALID,0,VALID,94.798,VALID,0,VALID,23.3518,VALID,110,VALID,0.369531,
2009-02-20, 02:04:04,VALID,998.821,VALID,0,VALID,94.8057,VALID,0,VALID,23.3713,VALID,109,VALID,0.412109,
2009-02-20, 02:05:04,VALID,998.858,VALID,0,VALID,94.737,VALID,0,VALID,23.35,VALID,104,VALID,0.438281,
2009-02-20, 02:06:04,VALID,998.867,VALID,0,VALID,94.7294,VALID,0,VALID,23.3713,VALID,104,VALID,0.323828,
2009-02-20, 02:07:04,VALID,998.892,VALID,0,VALID,94.6836,VALID,0,VALID,23.3518,VALID,90,VALID,0.355859,
2009-02-20, 02:08:04,VALID,998.883,VALID,0,VALID,94.6683,VALID,0,VALID,23.311,VALID,90,VALID,0.167969,
2009-02-20, 02:09:04,VALID,998.871,VALID,0,VALID,94.6912,VALID,0.112286,VALID,23.311,VALID,115,VALID,0.436328,
2009-02-20, 02:10:04,VALID,998.855,VALID,0,VALID,94.6988,VALID,0,VALID,23.2915,VALID,162,VALID,0.409766,
2009-02-20, 02:11:04,VALID,998.849,VALID,0,VALID,94.8209,VALID,0,VALID,23.3305,VALID,213,VALID,0.421484,
2009-02-20, 02:12:04,VALID,998.863,VALID,0,VALID,94.9125,VALID,0,VALID,23.3713,VALID,208,VALID,0.431641,
2009-02-20, 02:13:04,VALID,998.901,VALID,0,VALID,94.9048,VALID,0,VALID,23.3695,VALID,209,VALID,0.517187,
2009-02-20, 02:14:04,VALID,998.873,VALID,0,VALID,94.9354,VALID,0.112286,VALID,23.389,VALID,209,VALID,0.210547,
2009-02-20, 02:15:04,VALID,998.906,VALID,0,VALID,94.9888,VALID,0,VALID,23.4298,VALID,209,VALID,0.0769531,
2009-02-20, 02:16:04,VALID,998.872,VALID,0,VALID,94.9583,VALID,0,VALID,23.428,VALID,209,VALID,0,
2009-02-20, 02:17:04,VALID,998.885,VALID,0,VALID,94.9201,VALID,0,VALID,23.428,VALID,209,VALID,0,
2009-02-20, 02:18:04,VALID,998.88,VALID,0,VALID,94.8972,VALID,0,VALID,23.4298,VALID,209,VALID,0,
2009-02-20, 02:19:04,VALID,998.878,VALID,0,VALID,94.882,VALID,0,VALID,23.428,VALID,209,VALID,0,
2009-02-20, 02:20:04,VALID,998.878,VALID,0,VALID,94.7675,VALID,0,VALID,23.4103,VALID,209,VALID,0.26875,
2009-02-20, 02:21:04,VALID,998.848,VALID,0,VALID,94.7904,VALID,0,VALID,23.4103,VALID,209,VALID,0.347266,
2009-02-20, 02:22:04,VALID,998.856,VALID,0,VALID,94.8133,VALID,0,VALID,23.389,VALID,209,VALID,0.321484,
2009-02-20, 02:23:04,VALID,998.852,VALID,0,VALID,94.7828,VALID,0,VALID,23.3695,VALID,202,VALID,0.424219,
2009-02-20, 02:24:04,VALID,998.893,VALID,0,VALID,94.8896,VALID,0,VALID,23.4103,VALID,70,VALID,0.6125,
2009-02-20, 02:25:04,VALID,998.872,VALID,0,VALID,94.9583,VALID,0,VALID,23.4085,VALID,74,VALID,0.819531,
2009-02-20, 02:26:04,VALID,998.855,VALID,0,VALID,95.004,VALID,0,VALID,23.4688,VALID,90,VALID,0.886328,
2009-02-20, 02:27:04,VALID,998.863,VALID,0,VALID,94.9659,VALID,0,VALID,23.5079,VALID,91,VALID,0.845312,
2009-02-20, 02:28:04,VALID,998.826,VALID,0,VALID,94.9354,VALID,0,VALID,23.5079,VALID,87,VALID,0.737109,
2009-02-20, 02:29:04,VALID,998.828,VALID,0,VALID,94.8972,VALID,0,VALID,23.5256,VALID,82,VALID,0.700391,
2009-02-20, 02:30:04,VALID,998.797,VALID,0,VALID,94.7523,VALID,0,VALID,23.5079,VALID,54,VALID,0.548047,
2009-02-20, 02:31:04,VALID,998.805,VALID,0,VALID,94.676,VALID,0,VALID,23.5079,VALID,42,VALID,0.317187,
2009-02-20, 02:32:04,VALID,998.813,VALID,0,VALID,94.6683,VALID,0,VALID,23.4688,VALID,42,VALID,0.513281,
2009-02-20, 02:33:04,VALID,998.824,VALID,0,VALID,94.7217,VALID,0,VALID,23.4688,VALID,39,VALID,0.564453,
2009-02-20, 02:34:04,VALID,998.823,VALID,0,VALID,94.7828,VALID,0,VALID,23.5079,VALID,43,VALID,0.433984,
2009-02-20, 02:35:04,VALID,998.848,VALID,0,VALID,94.7751,VALID,0,VALID,23.5079,VALID,45,VALID,0.454297,
2009-02-20, 02:36:04,VALID,998.841,VALID,0,VALID,94.7294,VALID,0,VALID,23.4866,VALID,45,VALID,0.347266,
2009-02-20, 02:37:04,VALID,998.864,VALID,0,VALID,94.676,VALID,0,VALID,23.4671,VALID,45,VALID,0.306641,
2009-02-20, 02:38:04,VALID,998.865,VALID,0,VALID,94.6454,VALID,0,VALID,23.4475,VALID,45,VALID,0.367578,
2009-02-20, 02:39:04,VALID,998.862,VALID,0,VALID,94.6454,VALID,0,VALID,23.428,VALID,45,VALID,0.333594,
2009-02-20, 02:40:04,VALID,998.881,VALID,0,VALID,94.676,VALID,0,VALID,23.428,VALID,45,VALID,0.436719,
2009-02-20, 02:41:04,VALID,998.833,VALID,0,VALID,94.7217,VALID,0,VALID,23.4298,VALID,45,VALID,0.338281,
2009-02-20, 02:42:04,VALID,998.824,VALID,0,VALID,94.7217,VALID,0,VALID,23.4493,VALID,45,VALID,0.410547,
2009-02-20, 02:43:04,VALID,998.842,VALID,0,VALID,94.7599,VALID,0,VALID,23.428,VALID,45,VALID,0.548828,
2009-02-20, 02:44:04,VALID,998.828,VALID,0,VALID,94.7675,VALID,0,VALID,23.4298,VALID,41,VALID,0.630078,
2009-02-20, 02:45:04,VALID,998.817,VALID,0,VALID,94.7675,VALID,0,VALID,23.4493,VALID,41,VALID,0.639844,
2009-02-20, 02:46:04,VALID,998.816,VALID,0,VALID,94.7828,VALID,0,VALID,23.428,VALID,41,VALID,0.569141,
2009-02-20, 02:47:04,VALID,998.828,VALID,0,VALID,94.8285,VALID,0,VALID,23.4493,VALID,41,VALID,0.821484,
2009-02-20, 02:48:04,VALID,998.816,VALID,0,VALID,94.7904,VALID,0,VALID,23.428,VALID,41,VALID,0.989844,
2009-02-20, 02:49:04,VALID,998.841,VALID,0,VALID,94.8362,VALID,0,VALID,23.4298,VALID,41,VALID,1.03555,
2009-02-20, 02:50:04,VALID,998.794,VALID,0,VALID,94.8591,VALID,0,VALID,23.4298,VALID,41,VALID,0.945313,
2009-02-20, 02:51:04,VALID,998.824,VALID,0,VALID,94.7675,VALID,0,VALID,23.4298,VALID,41,VALID,0.832812,
2009-02-20, 02:52:04,VALID,998.784,VALID,0,VALID,94.798,VALID,0,VALID,23.389,VALID,41,VALID,0.835156,
2009-02-20, 02:53:04,VALID,998.755,VALID,0,VALID,94.8057,VALID,0,VALID,23.4103,VALID,45,VALID,0.742969,
2009-02-20, 02:54:04,VALID,998.777,VALID,0,VALID,94.8133,VALID,0,VALID,23.3695,VALID,45,VALID,0.573828,
2009-02-20, 02:55:04,VALID,998.741,VALID,0,VALID,94.7904,VALID,0,VALID,23.3908,VALID,45,VALID,0.402734,
2009-02-20, 02:56:04,VALID,998.739,VALID,0,VALID,94.7599,VALID,0,VALID,23.3713,VALID,45,VALID,0.197656,
2009-02-20, 02:57:04,VALID,998.766,VALID,0,VALID,94.7294,VALID,0,VALID,23.3518,VALID,45,VALID,0.379297,
2009-02-20, 02:58:04,VALID,998.756,VALID,0,VALID,94.737,VALID,0,VALID,23.3305,VALID,45,VALID,0.257422,
2009-02-20, 02:59:04,VALID,998.787,VALID,0,VALID,94.7523,VALID,0,VALID,23.3323,VALID,45,VALID,0.189844,
2009-02-20, 03:00:04,VALID,998.764,VALID,0,VALID,94.7904,VALID,0,VALID,23.2915,VALID,45,VALID,0.254297,
2009-02-20, 03:01:04,VALID,998.756,VALID,0,VALID,94.8514,VALID,0,VALID,23.3323,VALID,44,VALID,0.430859,
2009-02-20, 03:02:04,VALID,998.777,VALID,0,VALID,94.8591,VALID,0,VALID,23.311,VALID,44,VALID,0.534766,
2009-02-20, 03:03:04,VALID,998.745,VALID,0,VALID,94.882,VALID,0,VALID,23.3323,VALID,44,VALID,0.516406,
2009-02-20, 03:04:04,VALID,998.773,VALID,0,VALID,94.8209,VALID,0.112286,VALID,23.2915,VALID,44,VALID,0.582812,
2009-02-20, 03:05:04,VALID,998.791,VALID,0,VALID,94.8209,VALID,0,VALID,23.3127,VALID,39,VALID,0.782031,
2009-02-20, 03:06:04,VALID,998.775,VALID,0,VALID,94.7904,VALID,0,VALID,23.2719,VALID,39,VALID,0.832422,
2009-02-20, 03:07:04,VALID,998.81,VALID,0,VALID,94.8591,VALID,0,VALID,23.2737,VALID,39,VALID,0.735156,
2009-02-20, 03:08:04,VALID,998.784,VALID,0,VALID,94.7904,VALID,0,VALID,23.2542,VALID,48,VALID,0.653906,
2009-02-20, 03:09:04,VALID,998.808,VALID,0,VALID,94.8362,VALID,0,VALID,23.2542,VALID,62,VALID,0.586719,
2009-02-20, 03:10:04,VALID,998.805,VALID,0,VALID,94.8743,VALID,0,VALID,23.2347,VALID,63,VALID,0.469922,
2009-02-20, 03:11:04,VALID,998.772,VALID,0,VALID,94.8362,VALID,0,VALID,23.2152,VALID,63,VALID,0.276172,
2009-02-20, 03:12:04,VALID,998.78,VALID,0,VALID,94.8972,VALID,0,VALID,23.2152,VALID,63,VALID,0.514063,
2009-02-20, 03:13:04,VALID,998.787,VALID,0,VALID,94.9583,VALID,0,VALID,23.2152,VALID,63,VALID,0.566797,
2009-02-20, 03:14:04,VALID,998.769,VALID,0,VALID,95.0193,VALID,0,VALID,23.2134,VALID,63,VALID,0.399219,
2009-02-20, 03:15:04,VALID,998.734,VALID,0,VALID,94.8667,VALID,0,VALID,23.1939,VALID,61,VALID,0.510547,
2009-02-20, 03:16:04,VALID,998.774,VALID,0,VALID,94.943,VALID,0,VALID,23.1744,VALID,52,VALID,0.695313,
2009-02-20, 03:17:04,VALID,998.777,VALID,0,VALID,94.943,VALID,0,VALID,23.1762,VALID,51,VALID,0.726563,
2009-02-20, 03:18:04,VALID,998.832,VALID,0,VALID,94.9888,VALID,0,VALID,23.1957,VALID,51,VALID,0.744922,
2009-02-20, 03:19:04,VALID,998.828,VALID,0,VALID,95.1185,VALID,0,VALID,23.1939,VALID,51,VALID,0.730078,
2009-02-20, 03:20:04,VALID,998.839,VALID,0,VALID,95.0651,VALID,0,VALID,23.1939,VALID,65,VALID,0.633203,
2009-02-20, 03:21:04,VALID,998.842,VALID,0,VALID,95.0269,VALID,0,VALID,23.1957,VALID,74,VALID,0.767578,
2009-02-20, 03:22:04,VALID,998.805,VALID,0,VALID,95.0117,VALID,0,VALID,23.1744,VALID,77,VALID,0.766797,
2009-02-20, 03:23:04,VALID,998.817,VALID,0,VALID,95.0727,VALID,0,VALID,23.1744,VALID,77,VALID,0.749609,
2009-02-20, 03:24:04,VALID,998.793,VALID,0,VALID,95.0803,VALID,0,VALID,23.1957,VALID,77,VALID,0.698438,
2009-02-20, 03:25:04,VALID,998.802,VALID,0,VALID,95.0574,VALID,0,VALID,23.1744,VALID,72,VALID,0.775781,
2009-02-20, 03:26:04,VALID,998.828,VALID,0,VALID,95.0498,VALID,0,VALID,23.1762,VALID,65,VALID,0.863281,
2009-02-20, 03:27:04,VALID,998.833,VALID,0,VALID,95.0269,VALID,0,VALID,23.1566,VALID,64,VALID,0.804297,
2009-02-20, 03:28:04,VALID,998.851,VALID,0,VALID,95.088,VALID,0,VALID,23.1566,VALID,64,VALID,0.732031,
2009-02-20, 03:29:04,VALID,998.853,VALID,0,VALID,95.0422,VALID,0,VALID,23.1354,VALID,64,VALID,0.552734,
2009-02-20, 03:30:04,VALID,998.872,VALID,0,VALID,95.0574,VALID,0,VALID,23.1371,VALID,64,VALID,0.448828,
2009-02-20, 03:31:04,VALID,998.895,VALID,0,VALID,95.0651,VALID,0,VALID,23.1371,VALID,64,VALID,0.334766,
2009-02-20, 03:32:04,VALID,998.928,VALID,0,VALID,95.0803,VALID,0,VALID,23.1176,VALID,64,VALID,0.222266,
2009-02-20, 03:33:04,VALID,998.96,VALID,0,VALID,95.1032,VALID,0,VALID,23.0964,VALID,64,VALID,0.207031,
2009-02-20, 03:34:04,VALID,998.974,VALID,0,VALID,95.149,VALID,0,VALID,23.0964,VALID,64,VALID,0.36875,
2009-02-20, 03:35:04,VALID,998.963,VALID,0,VALID,95.1566,VALID,0,VALID,23.1159,VALID,64,VALID,0.281641,
2009-02-20, 03:36:04,VALID,998.976,VALID,0,VALID,95.1643,VALID,0,VALID,23.1176,VALID,64,VALID,0.263672,
2009-02-20, 03:37:04,VALID,998.981,VALID,0,VALID,95.1871,VALID,0,VALID,23.1371,VALID,64,VALID,0.342969,
2009-02-20, 03:38:04,VALID,998.994,VALID,0,VALID,95.2253,VALID,0,VALID,23.1566,VALID,70,VALID,0.442187,
2009-02-20, 03:39:04,VALID,999.008,VALID,0,VALID,95.1948,VALID,0,VALID,23.1762,VALID,98,VALID,0.432813,
2009-02-20, 03:40:04,VALID,999.041,VALID,0,VALID,95.1414,VALID,0,VALID,23.1762,VALID,125,VALID,0.65625,
2009-02-20, 03:41:04,VALID,999.034,VALID,0,VALID,95.088,VALID,0,VALID,23.1762,VALID,125,VALID,0.551953,
2009-02-20, 03:42:04,VALID,999.029,VALID,0,VALID,95.0651,VALID,0,VALID,23.1974,VALID,147,VALID,0.644141,
2009-02-20, 03:43:04,VALID,999.048,VALID,0,VALID,95.0345,VALID,0,VALID,23.1957,VALID,174,VALID,0.677734,
2009-02-20, 03:44:04,VALID,999.065,VALID,0,VALID,95.0345,VALID,0,VALID,23.2169,VALID,173,VALID,0.896875,
2009-02-20, 03:45:04,VALID,999.015,VALID,0,VALID,95.0117,VALID,0,VALID,23.2365,VALID,177,VALID,0.747656,